Regional Weather Roundup
Issued by NWS

Home | Current Version | Previous Version | Graphics & Text | Print | Product List | Glossary On
Versions: 1 2 3 4 5 6 7 8 9 10 11 12 13 14 15 16 17 18 19 20 21 22 23 24 25 26 27 28 29 30 31 32 33 34 35 36 37 38 39 40 41 42 43 44 45 46 47 48 49 50
133
ASUS43 KIND 261059
RWRIN

WEATHER ROUNDUP FOR INDIANA
NATIONAL WEATHER SERVICE INDIANAPOLIS IN
700 AM EDT SUN MAR 26 2017

NOTE: "FAIR" INDICATES FEW OR NO CLOUDS BELOW 12,000 FEET WITH NO
SIGNIFICANT WEATHER AND/OR OBSTRUCTIONS TO VISIBILITY.

* - STATION DOES NOT REPORT WEATHER SUCH AS PRECIPITATION OR FOG.

+ - STATION NOT QUALITY CONTROLLED BY THE NATIONAL WEATHER SERVICE.
    USE DATA WITH CAUTION...ESPECIALLY DEWPOINT AND RELATIVE
    HUMIDITY OBSERVATIONS.

INZ001>003-010>013-019-020-261200-
NORTHWEST INDIANA

CITY           SKY/WX    TMP DP  RH WIND       PRES   REMARKS
GARY /AIRPORT/ RAIN      52  50  93 SE12      29.87F
KNOX *+        CLOUDY    46  39  76 SE9       29.91S
MONTICELLO +   RAIN      52  51  96 E3        29.89S

$$

LMZ046-743>745-261200-
SOUTHERN LAKE MICHIGAN

STATION/POSITION TIME  TEMP    WIND        PRES    WAVE
                       AIR SEA DIR/SP/G            HT
                 (UTC) (F)     (DEG/KT/KT) (MB)    (FT)
BURNS HARBOR     1040   50     140/  8/ 19 1012.5S
MICHIGAN CITY    1030   48     120/ 12/ 15   N/A

$$

INZ004-005-014>016-021>024-261200-
NORTH CENTRAL INDIANA

CITY           SKY/WX    TMP DP  RH WIND       PRES   REMARKS
GOSHEN         LGT RAIN  46  42  86 E7        29.93F FOG
PERU/GRISSOM   LGT RAIN  52  52 100 SE8       29.90S
SOUTH BEND     LGT RAIN  44  32  62 E8        29.93F

$$

INZ006>009-017-018-025>027-261200-
NORTHEAST INDIANA

CITY           SKY/WX    TMP DP  RH WIND       PRES   REMARKS
ANGOLA *+      MOCLDY    39  39 100 SE7       29.97S
FORT WAYNE     LGT RAIN  44  42  93 E8        29.97S FOG
KENDALLVILLE + RAIN      41  41 100 E6        29.95F

$$

INZ028-029-035-036-043>045-051>053-261200-
WEST CENTRAL INDIANA

CITY           SKY/WX    TMP DP  RH WIND       PRES   REMARKS
CRAWFORDSVL +  HVY RAIN  55  55 100 SE10      29.88S
LAFAYETTE      LGT RAIN  56  56 100 SE9       29.87F
TERRE HAUTE    CLOUDY    56  54  93 S6        29.88R

$$

INZ030>032-037>040-046>048-054>057-064-065-261200-
CENTRAL INDIANA

CITY           SKY/WX    TMP DP  RH WIND       PRES   REMARKS
COLUMBUS       LGT RAIN  55  55 100 SE8       29.94
INDIANAPOLIS   LGT RAIN  56  55  97 SE9       29.90F
-EAGLE CREEK   LGT RAIN  57  55  93 SE8       29.90F
KOKOMO +       LGT RAIN  55  54  96 S10       29.92F
SHELBYVILLE    LGT RAIN  58  55  90 SE13      29.93S

$$

INZ033-034-041-042-049-050-058-059-261200-
EAST CENTRAL INDIANA

CITY           SKY/WX    TMP DP  RH WIND       PRES   REMARKS
MUNCIE         LGT RAIN  58  55  90 S6        29.94F
RICHMOND +     DRIZZLE   54  54 100 S7        29.97F

$$

INZ060-061-067>069-081>083-085>088-261200-
SOUTHWEST INDIANA

CITY           SKY/WX    TMP DP  RH WIND       PRES   REMARKS
EVANSVILLE     LGT RAIN  58  55  90 S7        29.91R
HUNTINGBURG *+ CLOUDY    57  55  93 S8        29.92S

$$

INZ062-063-066-070>080-084-089>092-261200-
SOUTH CENTRAL AND SOUTHEAST INDIANA

CITY           SKY/WX    TMP DP  RH WIND       PRES   REMARKS
BLOOMINGTON    LGT RAIN  57  54  89 S12       29.90S
MADISON *+     CLOUDY    55  54  94 SE6       29.98S
SEYMOUR +      LGT RAIN  59  57  94 S10       29.94S

$$





USA.gov is the U.S. government's official web portal to all federal, state and local government web resources and services.